Location: Killam
(52.7910°N, 111.8608°W)
Time: 13:26:49
(UTC+00:00)

Oscar 11 - Pass Details

Date: 23 March 2026
Orbit: 590 x 602 km, 97.8° (Epoch: 18 April)

Event Time Altitude Azimuth Distance (km) Brightness Sun altitude
Rises 12:31:22 0° 4° (N) 2,840 10.7 -8.5°
Reaches altitude 10° 12:33:58 10° 348° (NNW) 1,933 9.6 -8.1°
Maximum altitude 12:37:02 20° 301° (WNW) 1,384 8.5 -7.6°
Drops below altitude 10° 12:40:05 10° 253° (WSW) 1,924 8.9 -7.2°
Enters shadow 12:40:25 - 250° (WSW) 2,025 9.0 -7.1°
